Weather History for Fort Worth Alliance, TX

Change the Weather History Date:

Sunday, December 18, 2011

  Actual Average Record
Temperature  
Mean Temperature 51 °F -  
Max Temperature 57 °F 53 °F 75 °F (2006)
Min Temperature 45 °F 31 °F 19 °F (1996)
Degree Days  
Heating Degree Days 14    
Growing Degree Days 1 (Base 50)    
Moisture  
Dew Point 38 °F    
Average Humidity 60    
Maximum Humidity 80    
Minimum Humidity 49    
Precipitation  
Precipitation 0.00 in - - ()
Sea Level Pressure  
Sea Level Pressure 30.24 in    
Wind  
Wind Speed 5 mph (SSE)    
Max Wind Speed 14 mph    
Max Gust Speed 17 mph    
Visibility 10 miles    
Events      
Averages and records for this station are not official NWS values.
T = Trace of Precipitation, MM = Missing Value Source: NWS Daily Summary

Daily Weather History Graph

Daily Weather History Graph

Search for Another Location

Airport:

Trip Planner

Search our weather history database for the weather conditions in past years. The results will help you decide how hot, cold, wet, or windy it might be!

Date:

Astronomy

Dec. 18, 2011 Rise Set
Actual Time 7:26 AM CST 5:25 PM CST
Civil Twilight 6:59 AM CST 5:52 PM CST
Nautical Twilight 6:28 AM CST 6:23 PM CST
Astronomical Twilight 5:57 AM CST 6:53 PM CST
Moon 12:44 AM CST (12/18) 12:37 PM CST (12/18)
Length of Visible Light 10h 53m
Length of Day
9h 58m
Last Quarter, 42% of the Moon is Illuminated
Dec 18
Last Quarter
Dec 24
New
Jan 1
First Quarter
Jan 9
Full
Jan 16
Last Quarter

Hourly Weather History & Observations

Time (CST) Temp. Dew Point Humidity Pressure Visibility Wind Dir Wind Speed Gust Speed Precip Events Conditions
12:53 AM 45.0 °F 37.9 °F 76% 30.41 in 10.0 mi Calm Calm - N/A   Overcast
1:53 AM 46.9 °F 39.0 °F 74% 30.40 in 10.0 mi SW 3.5 mph - N/A   Overcast
2:53 AM 46.4 °F 37.4 °F 71% 30.38 in 10.0 mi Calm Calm - N/A   Mostly Cloudy
3:53 AM 46.9 °F 39.9 °F 77% 30.37 in 10.0 mi Calm Calm - N/A   Overcast
4:53 AM 46.9 °F 37.9 °F 71% 30.36 in 10.0 mi Calm Calm - N/A   Overcast
5:53 AM 48.0 °F 39.0 °F 71% 30.36 in 10.0 mi Calm Calm - N/A   Overcast
6:53 AM 46.9 °F 41.0 °F 80% 30.36 in 10.0 mi Calm Calm - N/A   Overcast
7:53 AM 48.0 °F 39.0 °F 71% 30.37 in 9.0 mi Calm Calm - N/A   Overcast
8:53 AM 50.0 °F 37.4 °F 62% 30.35 in 10.0 mi SSE 4.6 mph - N/A   Overcast
9:53 AM 52.0 °F 36.0 °F 54% 30.37 in 10.0 mi South 9.2 mph - N/A   Overcast
10:53 AM 53.1 °F 36.0 °F 52% 30.35 in 10.0 mi South 10.4 mph - N/A   Overcast
11:53 AM 53.6 °F 37.4 °F 54% 30.30 in 10.0 mi South 10.4 mph 17.3 mph N/A   Overcast
12:53 PM 54.0 °F 37.0 °F 53% 30.27 in 10.0 mi South 13.8 mph - N/A   Overcast
1:53 PM 55.4 °F 37.4 °F 51% 30.21 in 10.0 mi South 12.7 mph - N/A   Overcast
2:53 PM 57.0 °F 39.0 °F 51% 30.19 in 10.0 mi South 12.7 mph - N/A   Mostly Cloudy
3:53 PM 57.9 °F 39.0 °F 49% 30.17 in 10.0 mi South 11.5 mph - N/A   Scattered Clouds
4:53 PM 55.9 °F 37.9 °F 51% 30.16 in 10.0 mi SSE 10.4 mph - N/A   Clear
5:53 PM 52.0 °F 37.9 °F 59% 30.16 in 10.0 mi SSE 6.9 mph - N/A   Clear
6:53 PM 53.6 °F 37.4 °F 54% 30.15 in 10.0 mi SSE 8.1 mph - N/A   Partly Cloudy
7:53 PM 53.1 °F 37.9 °F 57% 30.15 in 10.0 mi SSE 9.2 mph - N/A   Clear
8:53 PM 52.0 °F 37.9 °F 59% 30.14 in 10.0 mi South 8.1 mph - N/A   Clear
9:29 PM 53.6 °F 37.4 °F 54% 30.12 in 10.0 mi SSE 9.2 mph - N/A   Clear
9:32 PM 53.6 °F 37.4 °F 54% 30.12 in 10.0 mi SSE 9.2 mph - N/A   Clear
9:53 PM 53.1 °F 37.0 °F 55% 30.11 in 10.0 mi SSE 10.4 mph - N/A   Clear
10:42 PM 51.8 °F 37.4 °F 58% 30.11 in 10.0 mi South 6.9 mph - N/A   Mostly Cloudy
10:53 PM 51.8 °F 37.4 °F 58% 30.10 in 10.0 mi South 8.1 mph - N/A   Overcast
11:37 PM 53.6 °F 37.4 °F 54% 30.08 in 10.0 mi SSE 11.5 mph - N/A   Overcast
11:53 PM 53.1 °F 37.0 °F 55% 30.08 in 10.0 mi South 9.2 mph - N/A   Mostly Cloudy